Regional Weather Roundup
Issued by NWS

Home | Current Version | Previous Version | Graphics & Text | Print | Product List | Glossary On
Versions: 1 2 3 4 5 6 7 8 9 10 11 12 13 14 15 16 17 18 19 20 21 22 23 24 25 26 27 28 29 30 31 32 33 34 35 36 37 38 39 40 41 42 43 44 45 46 47 48 49 50
000
ASUS43 KOAX 080402
RWRNE

WEATHER ROUNDUP FOR NEBRASKA
NATIONAL WEATHER SERVICE OMAHA NE
1100 PM CDT TUE JUL 07 2015

NOTES: SATELLITE DATA IS BEING USED TO AUGMENT CLOUD COVER ABOVE
       12000 FEET.
       "FAIR" INDICATES FEW OR NO CLOUDS BELOW 12,000 FEET WITH NO
       SIGNIFICANT WEATHER AND/OR OBSTRUCTIONS TO VISIBILITY.

  * THESE STATIONS DO NOT REPORT WEATHER SUCH AS RAIN...SNOW OR FOG.

NEZ001>004-019>022-054>056-080500-
NEBRASKA PANHANDLE

CITY           SKY/WX    TMP DP  RH WIND       PRES   REMARKS
SCOTTSBLUFF    CLOUDY    64  52  64 E9        30.08R
ALLIANCE       CLOUDY    65  50  58 S15       30.09R
CHADRON        MOCLDY    66  51  58 S5        30.05R
KIMBALL          N/A    N/A N/A N/A MISG        N/A
SIDNEY         CLOUDY    61  48  62 SE10      30.12R
$$

NEZ057>060-069>072-079>082-080500-
SOUTHWEST NEBRASKA

CITY           SKY/WX    TMP DP  RH WIND       PRES   REMARKS
NORTH PLATTE   CLOUDY    65  52  62 SE7       30.11R
IMPERIAL       CLOUDY    65  49  56 SE13      30.10S
LEXINGTON      PTCLDY    62  55  79 SE3       30.12R
MCCOOK         PTCLDY    63  52  67 SE8       30.11R
$$

NEZ005>010-023>029-035>040-094-080500-
NORTH CENTRAL NEBRASKA

CITY           SKY/WX    TMP DP  RH WIND       PRES   REMARKS
VALENTINE      CLEAR     62  55  77 SE7       30.08R
AINSWORTH      CLEAR     60  55  83 SE7       30.10S
BROKEN BOW     MOCLDY    61  54  77 SE3       30.11R
ORD            CLEAR     60  51  72 SE5       30.11R
$$

NEZ041-046>049-061>064-073>077-083>087-080500-
SOUTH CENTRAL NEBRASKA

CITY           SKY/WX    TMP DP  RH WIND       PRES   REMARKS
GRAND ISLAND   PTCLDY    59  52  77 E5        30.13R
AURORA         PTCLDY    58  55  88 E5        30.12R
HASTINGS       PTCLDY    60  50  69 E5        30.12R
KEARNEY *      PTCLDY    59  54  82 SE6       30.12R
$$

NEZ011>018-030>034-042>045-080500-
NORTHEAST NEBRASKA

CITY           SKY/WX    TMP DP  RH WIND       PRES   REMARKS
NORFOLK        PTCLDY    58  53  84 CALM      30.12R
BLAIR          CLEAR     60  52  76 NE5       30.10S
FREMONT        PTCLDY    63  53  69 CALM      30.12R
TEKAMAH        PTCLDY    59  54  83 E6        30.10R
$$

NEZ050>053-065>068-078-088>093-080500-
SOUTHEAST NEBRASKA

CITY           SKY/WX    TMP DP  RH WIND       PRES   REMARKS
LINCOLN        CLEAR     59  53  80 E6        30.11R
OMAHA EPPLEY   CLEAR     63  53  70 E6        30.10R
FALLS CITY     CLOUDY    65  56  72 NE3       30.08R
PLATTSMOUTH    CLEAR     62  51  67 NE3       30.10S
$$

NEZ044-045-051>053-067-080500-
OMAHA AREA

CITY           SKY/WX    TMP DP  RH WIND       PRES   REMARKS
OMAHA EPPLEY   CLEAR     63  53  70 E6        30.10R
BLAIR          CLEAR     60  52  76 NE5       30.10S
FREMONT        PTCLDY    63  53  69 CALM      30.12R
MILLARD        CLEAR     61  54  79 CALM      30.10R
OFFUTT AFB     CLEAR     55  53  93 NE5       30.09R
PLATTSMOUTH    CLEAR     62  51  67 NE3       30.10S
$$



USA.gov is the U.S. government's official web portal to all federal, state and local government web resources and services.